Tracking 33199 objects as of 17-Feb-2026
HD Live streaming from Space Station
objects crossing your sky now

TANSTAAFL-2

Track TANSTAAFL-2 now!
10-day predictions
TANSTAAFL-2 is classified as:


NORAD ID: 62378
Int'l Code: 2024-247B
Perigee: 489.1 km
Apogee: 491.5 km
Inclination: 45.0 °
Period: 94.3 minutes
Semi major axis: 6861 km
RCS: Unknown
Launch date: December 21, 2024
Source: United States (US)
Launch site: AIR FORCE WESTERN TEST RANGE (AFWTR)

Uplink (MHz):
Downlink (MHz): 2205.000/2282.500
Beacon (MHz):
Mode: 196k8_BPSK/131k_QPSK
Call sign:
Status: Unknown


Uplink (MHz):
Downlink (MHz): 2205.000/2282.500
Beacon (MHz):
Mode: 196k8_BPSK/131k_QPSK
Call sign:
Status: Unknown

Your satellite tracking list
Your tracking list is empty




NASA's NSSDC Master Catalog

Two Line Element Set (TLE):
1 62378U 24247B   26046.54547463  .00013298  00000-0  49432-3 0  9999
2 62378  44.9828 237.9471 0001814 205.3476 154.7319 15.27544150 64348
Source of the keplerian elements: AFSPC